Holland, MI

2:02 PM EDT on September 28, 2016 (GMT -0400)
Tulip City

Weather History for KBIV - June, 2012

Change the Weather History Date:

Monday, June 18, 2012

  Actual Average Record
Temperature  
Mean Temperature 79 °F 69 °F  
Max Temperature 94 °F 80 °F 94 °F (2012)
Min Temperature 63 °F 59 °F 41 °F (1999)
Degree Days  
Heating Degree Days 0 1  
Month to date heating degree days 39  
Since 1 June heating degree days 39  
Since 1 July heating degree days 6151  
Cooling Degree Days 14 5  
Month to date cooling degree days 70  
Year to date cooling degree days 112  
Since 1 June cooling degree days 70  
Growing Degree Days 28 (Base 50)    
Moisture  
Dew Point 63 °F    
Average Humidity 63    
Maximum Humidity 84    
Minimum Humidity 41    
Precipitation  
Precipitation 0.02 in 0.13 in 0.90 in (1975)
Month to date precipitation 0.86 2.62  
Year to date precipitation 15.21  
Sea Level Pressure  
Sea Level Pressure 29.77 in    
Wind  
Wind Speed 10 mph (South)    
Max Wind Speed 32 mph    
Max Gust Speed 40 mph    
Visibility 10 miles    
Events Thunderstorm    
T = Trace of Precipitation, MM = Missing Value Source: NWS Daily Summary

Daily Weather History Graph

Daily Weather History Graph

Search for Another Location

Airport or City:

Trip Planner

Search our weather history database for the weather conditions in past years. The results will help you decide how hot, cold, wet, or windy it might be!

Date:

Astronomy

Jun. 18, 2012 Rise Set
Actual Time 6:05 AM EDT 9:25 PM EDT
Civil Twilight 5:30 AM EDT 10:00 PM EDT
Nautical Twilight 4:45 AM EDT 10:46 PM EDT
Astronomical Twilight 3:48 AM EDT 11:42 PM EDT
Moon 5:20 AM EDT (6/18) 8:42 PM EDT (6/18)
Length of Visible Light 16h 30m
Length of Day
15h 19m
Waning Crescent, 1% of the Moon is Illuminated
Jun 18
Waning Crescent
Jun 19
New
Jun 26
First Quarter
Jul 3
Full
Jul 10
Last Quarter

Hourly Weather History & Observations

Time (EDT) Temp. Heat Index Dew Point Humidity Pressure Visibility Wind Dir Wind Speed Gust Speed Precip Events Conditions
12:53 AM 66.9 °F - 57.0 °F 70% 29.81 in 10.0 mi SE 3.5 mph - N/A   Clear
1:53 AM 64.9 °F - 57.0 °F 75% 29.81 in 10.0 mi SSE 4.6 mph - N/A   Clear
2:53 AM 66.0 °F - 57.9 °F 75% 29.80 in 10.0 mi South 3.5 mph - N/A   Clear
3:53 AM 64.0 °F - 57.9 °F 80% 29.80 in 10.0 mi SSE 3.5 mph - N/A   Clear
4:53 AM 63.0 °F - 57.9 °F 84% 29.78 in 10.0 mi SSE 4.6 mph - N/A   Partly Cloudy
5:53 AM 64.0 °F - 59.0 °F 84% 29.78 in 10.0 mi SSE 6.9 mph - N/A   Clear
6:53 AM 66.9 °F - 60.1 °F 79% 29.77 in 10.0 mi South 8.1 mph - N/A   Clear
7:53 AM 71.1 °F - 62.1 °F 73% 29.77 in 10.0 mi SSE 9.2 mph - N/A   Clear
8:53 AM 73.9 °F - 64.0 °F 71% 29.77 in 10.0 mi South 9.2 mph - N/A   Overcast
9:18 AM 73.4 °F - 64.4 °F 73% 29.79 in 10.0 mi SSE 10.4 mph - 0.01 in Thunderstorm Thunderstorm
9:43 AM 73.4 °F - 64.4 °F 73% 29.80 in 10.0 mi South 3.5 mph - 0.01 in   Mostly Cloudy
9:53 AM 73.9 °F - 64.9 °F 73% 29.83 in 10.0 mi NNE 12.7 mph 19.6 mph 0.01 in   Mostly Cloudy
10:08 AM 73.4 °F - 62.6 °F 69% 29.83 in 10.0 mi ENE 11.5 mph 20.7 mph N/A   Overcast
10:53 AM 72.0 °F - 64.0 °F 76% 29.78 in 10.0 mi ESE 11.5 mph - N/A   Mostly Cloudy
11:53 AM 75.9 °F - 64.9 °F 69% 29.80 in 10.0 mi ESE 13.8 mph - N/A   Scattered Clouds
12:53 PM 81.0 °F 83.0 °F 66.0 °F 60% 29.78 in 10.0 mi ESE 11.5 mph - N/A   Partly Cloudy
1:53 PM 87.1 °F 92.0 °F 70.0 °F 57% 29.75 in 10.0 mi SE 12.7 mph - N/A   Clear
2:53 PM 91.9 °F 96.9 °F 69.1 °F 47% 29.73 in 10.0 mi SSW 20.7 mph 29.9 mph 0.01 in   Clear
3:53 PM 93.0 °F 95.9 °F 66.0 °F 41% 29.71 in 10.0 mi SSW 25.3 mph 36.8 mph N/A   Clear
4:53 PM 91.9 °F 95.4 °F 66.9 °F 44% 29.69 in 10.0 mi SSW 26.5 mph 38.0 mph N/A   Clear
5:53 PM 91.9 °F 95.4 °F 66.9 °F 44% 29.68 in 10.0 mi SSW 23.0 mph 34.5 mph N/A   Clear
6:53 PM 90.0 °F 92.8 °F 66.9 °F 46% 29.69 in 10.0 mi SSW 20.7 mph 29.9 mph N/A   Clear
7:53 PM 88.0 °F 89.6 °F 64.9 °F 46% 29.71 in 10.0 mi SSW 20.7 mph 34.5 mph N/A   Clear
8:53 PM 87.1 °F 88.3 °F 64.0 °F 46% 29.73 in 10.0 mi SSW 19.6 mph 27.6 mph N/A   Clear
9:53 PM 86.0 °F 87.6 °F 64.9 °F 49% 29.75 in 10.0 mi SW 18.4 mph 27.6 mph N/A   Clear
10:53 PM 87.1 °F 88.9 °F 64.9 °F 48% 29.78 in 10.0 mi SSW 17.3 mph 27.6 mph N/A   Clear
11:53 PM 86.0 °F 87.6 °F 64.9 °F 49% 29.80 in 10.0 mi SSW 17.3 mph 31.1 mph N/A   Clear